| time (UTC) | temp C | wind direction | speed KPH | gust KPH | rain 1hr cm | rain 24hr cm | rain mn cm | humidity % | barometer mb |
| 20260507105901 | 11 | 302 | 0.0 | 0.0 | 0.00 | 0.00 | 0.00 | 95 | 1015.0 |
| 20260507105358 | 11 | 275 | 0.0 | 0.0 | 0.00 | 0.00 | 0.00 | 95 | 1015.0 |
| 20260507104855 | 11 | 320 | 0.0 | 0.0 | 0.00 | 0.00 | 0.00 | 95 | 1015.4 |
| 20260507104351 | 11 | 338 | 0.0 | 0.0 | 0.00 | 0.00 | 0.00 | 95 | 1015.2 |
| 20260507103847 | 11 | 348 | 0.0 | 0.0 | 0.00 | 0.00 | 0.00 | 95 | 1015.3 |
| 20260507103344 | 11 | 271 | 0.0 | 0.0 | 0.00 | 0.00 | 0.00 | 95 | 1015.3 |
| 20260507102840 | 11 | 311 | 0.0 | 0.0 | 0.00 | 0.00 | 0.00 | 95 | 1015.2 |
| 20260507102337 | 11 | 29 | 0.0 | 0.0 | 0.00 | 0.00 | 0.00 | 95 | 1015.3 |
| 20260507101834 | 11 | 24 | 0.0 | 0.0 | 0.00 | 0.00 | 0.00 | 95 | 1015.5 |
| 20260507101333 | 11 | 317 | 0.0 | 0.0 | 0.00 | 0.00 | 0.00 | 95 | 1015.2 |
| 20260507100831 | 11 | 312 | 0.0 | 0.0 | 0.00 | 0.00 | 0.00 | 95 | 1015.3 |
| 20260507100329 | 11 | 305 | 0.0 | 0.0 | 0.00 | 0.00 | 0.00 | 95 | 1015.5 |
| 20260507095827 | 11 | 313 | 0.0 | 0.0 | 0.00 | 0.00 | 0.00 | 94 | 1015.5 |
| 20260507095323 | 11 | 315 | 0.0 | 0.0 | 0.00 | 0.00 | 0.00 | 94 | 1015.6 |
| 20260507094821 | 12 | 322 | 0.0 | 0.0 | 0.00 | 0.00 | 0.00 | 94 | 1015.5 |
| 20260507094317 | 12 | 315 | 0.0 | 0.0 | 0.00 | 0.00 | 0.00 | 94 | 1015.4 |
| 20260507093814 | 12 | 317 | 0.0 | 0.0 | 0.00 | 0.00 | 0.00 | 94 | 1015.7 |
| 20260507093312 | 12 | 313 | 0.0 | 0.0 | 0.00 | 0.00 | 0.00 | 94 | 1015.5 |
| 20260507092810 | 12 | 319 | 0.0 | 0.0 | 0.00 | 0.00 | 0.00 | 94 | 1015.9 |
| 20260507092307 | 12 | 283 | 0.0 | 0.0 | 0.00 | 0.00 | 0.00 | 94 | 1015.8 |
| 20260507091803 | 12 | 292 | 0.0 | 0.0 | 0.00 | 0.00 | 0.00 | 94 | 1015.6 |
| 20260507091259 | 12 | 327 | 0.0 | 0.0 | 0.00 | 0.00 | 0.00 | 94 | 1015.7 |
| 20260507090759 | 12 | 320 | 0.0 | 0.0 | 0.00 | 0.00 | 0.00 | 94 | 1015.7 |
| 20260507090256 | 12 | 327 | 0.0 | 0.0 | 0.00 | 0.00 | 0.00 | 94 | 1015.8 |
| 20260507085753 | 12 | 349 | 0.0 | 0.0 | 0.00 | 0.00 | 0.00 | 94 | 1015.6 |
| 20260507085250 | 12 | 328 | 0.0 | 0.0 | 0.00 | 0.00 | 0.00 | 94 | 1015.6 |
| 20260507084747 | 12 | 305 | 0.0 | 0.0 | 0.00 | 0.00 | 0.00 | 94 | 1015.8 |
| 20260507084243 | 12 | 324 | 0.0 | 0.0 | 0.00 | 0.00 | 0.00 | 94 | 1016.0 |
| 20260507083741 | 12 | 291 | 0.0 | 0.0 | 0.00 | 0.00 | 0.00 | 94 | 1015.9 |
| 20260507083238 | 12 | 321 | 0.0 | 0.0 | 0.00 | 0.00 | 0.00 | 94 | 1016.0 |
| 20260507082734 | 12 | 346 | 0.0 | 0.0 | 0.00 | 0.00 | 0.00 | 94 | 1016.1 |
| 20260507082229 | 12 | 331 | 0.0 | 0.0 | 0.00 | 0.00 | 0.00 | 94 | 1015.9 |
| 20260507081727 | 12 | 316 | 0.0 | 0.0 | 0.00 | 0.00 | 0.00 | 94 | 1016.2 |
| 20260507081223 | 12 | 320 | 0.0 | 0.0 | 0.00 | 0.00 | 0.00 | 94 | 1016.3 |
| 20260507080719 | 12 | 320 | 0.0 | 0.0 | 0.00 | 0.00 | 0.00 | 94 | 1016.1 |
| 20260507080215 | 12 | 305 | 0.0 | 0.0 | 0.00 | 0.00 | 0.00 | 94 | 1016.2 |
| 20260507075711 | 12 | 318 | 0.0 | 0.0 | 0.00 | 0.00 | 0.00 | 94 | 1016.2 |
| 20260507075208 | 13 | 310 | 0.0 | 0.0 | 0.00 | 0.00 | 0.00 | 93 | 1016.2 |
| 20260507074704 | 13 | 335 | 0.0 | 0.0 | 0.00 | 0.00 | 0.00 | 93 | 1016.1 |
| 20260507074203 | 13 | 335 | 0.0 | 0.0 | 0.00 | 0.00 | 0.00 | 94 | 1016.4 |
| 20260507073658 | 13 | 336 | 0.0 | 0.0 | 0.00 | 0.00 | 0.00 | 94 | 1016.2 |
| 20260507073154 | 13 | 328 | 0.0 | 0.0 | 0.00 | 0.00 | 0.00 | 94 | 1016.4 |
| 20260507072653 | 13 | 315 | 0.0 | 0.0 | 0.00 | 0.00 | 0.00 | 93 | 1016.4 |
| 20260507072150 | 13 | 318 | 0.0 | 0.0 | 0.00 | 0.00 | 0.00 | 93 | 1016.3 |
| 20260507071648 | 13 | 310 | 0.0 | 0.0 | 0.00 | 0.00 | 0.00 | 93 | 1016.3 |
| 20260507071143 | 13 | 310 | 0.0 | 0.0 | 0.00 | 0.00 | 0.00 | 93 | 1016.5 |
| 20260507070641 | 13 | 310 | 0.0 | 0.0 | 0.00 | 0.00 | 0.00 | 93 | 1016.4 |
| 20260507070138 | 13 | 310 | 0.0 | 0.0 | 0.00 | 0.00 | 0.00 | 93 | 1016.5 |
| 20260507065634 | 13 | 310 | 0.0 | 0.0 | 0.00 | 0.00 | 0.00 | 93 | 1016.5 |
| 20260507065131 | 13 | 310 | 0.0 | 0.0 | 0.00 | 0.00 | 0.00 | 92 | 1016.5 |
| 20260507064628 | 13 | 317 | 0.0 | 0.0 | 0.00 | 0.00 | 0.00 | 92 | 1016.4 |
| 20260507064127 | 13 | 317 | 0.0 | 0.0 | 0.00 | 0.00 | 0.00 | 92 | 1016.3 |
| 20260507063624 | 13 | 272 | 0.0 | 0.0 | 0.00 | 0.00 | 0.00 | 92 | 1016.0 |
| 20260507063121 | 13 | 320 | 0.0 | 0.0 | 0.00 | 0.00 | 0.00 | 92 | 1016.2 |
| 20260507062617 | 13 | 320 | 0.0 | 0.0 | 0.00 | 0.00 | 0.00 | 91 | 1016.3 |
| 20260507062115 | 14 | 320 | 0.0 | 0.0 | 0.00 | 0.00 | 0.00 | 91 | 1016.5 |
| 20260507061613 | 14 | 320 | 0.0 | 0.0 | 0.00 | 0.00 | 0.00 | 91 | 1016.4 |
| 20260507061111 | 14 | 329 | 0.0 | 0.0 | 0.00 | 0.00 | 0.00 | 91 | 1016.4 |
| 20260507060609 | 15 | 321 | 0.0 | 0.0 | 0.00 | 0.00 | 0.00 | 91 | 1016.3 |
| 20260507060105 | 15 | 29 | 0.0 | 1.6 | 0.00 | 0.00 | 0.00 | 91 | 1016.4 |
| 20260507055600 | 14 | 321 | 0.0 | 0.0 | 0.00 | 0.00 | 0.00 | 91 | 1016.3 |
| 20260507055056 | 15 | 318 | 0.0 | 0.0 | 0.00 | 0.00 | 0.00 | 90 | 1016.6 |
| 20260507054553 | 15 | 318 | 0.0 | 0.0 | 0.00 | 0.00 | 0.00 | 90 | 1016.4 |
| 20260507054050 | 15 | 319 | 0.0 | 0.0 | 0.00 | 0.00 | 0.00 | 90 | 1016.5 |
| 20260507053548 | 15 | 273 | 0.0 | 0.0 | 0.00 | 0.00 | 0.00 | 90 | 1016.5 |
| 20260507053046 | 15 | 277 | 0.0 | 0.0 | 0.00 | 0.00 | 0.00 | 90 | 1016.5 |
| 20260507052543 | 15 | 277 | 0.0 | 0.0 | 0.00 | 0.00 | 0.00 | 90 | 1016.4 |
| 20260507052040 | 15 | 331 | 0.0 | 0.0 | 0.00 | 0.00 | 0.00 | 90 | 1016.5 |
| 20260507051538 | 15 | 343 | 0.0 | 0.0 | 0.00 | 0.00 | 0.00 | 90 | 1016.7 |
| 20260507051034 | 15 | 329 | 0.0 | 0.0 | 0.00 | 0.00 | 0.00 | 89 | 1016.3 |
| 20260507050531 | 15 | 335 | 0.0 | 0.0 | 0.00 | 0.00 | 0.00 | 89 | 1016.3 |
| 20260507050027 | 15 | 325 | 0.0 | 0.0 | 0.00 | 0.00 | 0.00 | 88 | 1016.5 |
| 20260507045524 | 15 | 321 | 0.0 | 0.0 | 0.00 | 0.00 | 0.00 | 88 | 1016.3 |
| 20260507045021 | 16 | 309 | 0.0 | 0.0 | 0.00 | 0.00 | 0.00 | 88 | 1016.3 |
| 20260507044518 | 16 | 293 | 1.6 | 1.6 | 0.00 | 0.00 | 0.00 | 88 | 1016.4 |
| 20260507044015 | 16 | 303 | 0.0 | 0.0 | 0.00 | 0.00 | 0.00 | 88 | 1016.4 |
| 20260507043511 | 16 | 304 | 0.0 | 0.0 | 0.00 | 0.00 | 0.00 | 87 | 1016.3 |
| 20260507043008 | 16 | 309 | 0.0 | 0.0 | 0.00 | 0.00 | 0.00 | 87 | 1016.6 |
| 20260507042504 | 16 | 325 | 0.0 | 0.0 | 0.00 | 0.00 | 0.00 | 86 | 1016.3 |
| 20260507041959 | 16 | 305 | 0.0 | 1.6 | 0.00 | 0.00 | 0.00 | 86 | 1016.6 |
| 20260507041457 | 16 | 318 | 0.0 | 0.0 | 0.00 | 0.00 | 0.00 | 86 | 1016.4 |
| 20260507040954 | 16 | 266 | 0.0 | 1.6 | 0.00 | 0.00 | 0.00 | 85 | 1016.3 |
| 20260507040449 | 16 | 307 | 0.0 | 1.6 | 0.00 | 0.00 | 0.00 | 85 | 1016.5 |
| 20260507035945 | 16 | 318 | 0.0 | 0.0 | 0.00 | 0.00 | 0.00 | 84 | 1016.2 |
| 20260507035442 | 16 | 308 | 0.0 | 0.0 | 0.00 | 0.00 | 0.00 | 84 | 1016.2 |
| 20260507034939 | 16 | 311 | 0.0 | 1.6 | 0.00 | 0.00 | 0.00 | 84 | 1016.0 |
| 20260507034436 | 16 | 7 | 0.0 | 0.0 | 0.00 | 0.00 | 0.00 | 84 | 1016.1 |
| 20260507033934 | 16 | 330 | 0.0 | 0.0 | 0.00 | 0.00 | 0.00 | 85 | 1016.2 |
| 20260507033431 | 16 | 329 | 1.6 | 3.2 | 0.00 | 0.00 | 0.00 | 85 | 1015.9 |
| 20260507032928 | 16 | 287 | 0.0 | 0.0 | 0.00 | 0.00 | 0.00 | 85 | 1016.2 |
| 20260507032425 | 17 | 304 | 0.0 | 0.0 | 0.00 | 0.00 | 0.00 | 84 | 1016.0 |
| 20260507031921 | 17 | 309 | 1.6 | 1.6 | 0.00 | 0.00 | 0.00 | 84 | 1016.1 |
| 20260507031418 | 17 | 316 | 0.0 | 0.0 | 0.00 | 0.00 | 0.00 | 84 | 1016.1 |
| 20260507030915 | 17 | 291 | 1.6 | 1.6 | 0.00 | 0.00 | 0.00 | 83 | 1015.8 |
| 20260507030412 | 17 | 312 | 0.0 | 0.0 | 0.00 | 0.00 | 0.00 | 82 | 1015.7 |
| 20260507025909 | 17 | 348 | 0.0 | 0.0 | 0.00 | 0.00 | 0.00 | 81 | 1015.8 |
| 20260507025406 | 17 | 286 | 0.0 | 0.0 | 0.00 | 0.00 | 0.00 | 81 | 1015.9 |
| 20260507024904 | 17 | 314 | 0.0 | 0.0 | 0.00 | 0.00 | 0.00 | 80 | 1015.9 |
| 20260507024401 | 17 | 285 | 1.6 | 3.2 | 0.00 | 0.00 | 0.00 | 80 | 1015.6 |
| 20260507023857 | 17 | 285 | 0.0 | 1.6 | 0.00 | 0.00 | 0.00 | 80 | 1015.8 |
| 20260507023354 | 17 | 310 | 1.6 | 1.6 | 0.00 | 0.00 | 0.00 | 79 | 1015.6 |
| 20260507022851 | 18 | 301 | 1.6 | 1.6 | 0.00 | 0.00 | 0.00 | 80 | 1015.5 |
| 20260507022348 | 18 | 311 | 0.0 | 0.0 | 0.00 | 0.00 | 0.00 | 80 | 1015.4 |
| 20260507021843 | 18 | 293 | 3.2 | 4.8 | 0.00 | 0.00 | 0.00 | 79 | 1015.7 |
| 20260507021339 | 19 | 298 | 3.2 | 4.8 | 0.00 | 0.00 | 0.00 | 78 | 1015.6 |
| 20260507020837 | 19 | 325 | 4.8 | 8.0 | 0.00 | 0.00 | 0.00 | 77 | 1015.5 |
| 20260507020334 | 19 | 289 | 4.8 | 4.8 | 0.00 | 0.00 | 0.00 | 77 | 1015.4 |
| 20260507015831 | 20 | 322 | 4.8 | 8.0 | 0.00 | 0.00 | 0.00 | 74 | 1015.5 |
| 20260507015329 | 20 | 300 | 3.2 | 4.8 | 0.00 | 0.00 | 0.00 | 74 | 1015.3 |
| 20260507014825 | 20 | 130 | 0.0 | 1.6 | 0.00 | 0.00 | 0.00 | 74 | 1015.2 |
| 20260507014322 | 20 | 313 | 1.6 | 1.6 | 0.00 | 0.00 | 0.00 | 72 | 1015.4 |
| 20260507013818 | 20 | 310 | 6.4 | 8.0 | 0.00 | 0.00 | 0.00 | 70 | 1015.3 |
| 20260507013315 | 20 | 314 | 1.6 | 3.2 | 0.00 | 0.00 | 0.00 | 70 | 1015.3 |
| 20260507012813 | 20 | 278 | 4.8 | 4.8 | 0.00 | 0.00 | 0.00 | 67 | 1015.2 |
| 20260507012309 | 20 | 282 | 4.8 | 8.0 | 0.00 | 0.00 | 0.00 | 65 | 1015.3 |
| 20260507011806 | 21 | 275 | 6.4 | 9.7 | 0.00 | 0.00 | 0.00 | 62 | 1015.4 |
| 20260507011302 | 21 | 280 | 4.8 | 4.8 | 0.00 | 0.00 | 0.00 | 61 | 1015.2 |
| 20260507010802 | 21 | 255 | 4.8 | 4.8 | 0.00 | 0.00 | 0.00 | 62 | 1015.2 |
| 20260507010258 | 21 | 300 | 9.7 | 12.9 | 0.00 | 0.00 | 0.00 | 61 | 1015.0 |
| 20260507005756 | 21 | 247 | 3.2 | 4.8 | 0.00 | 0.00 | 0.00 | 60 | 1015.1 |
| 20260507005252 | 21 | 290 | 3.2 | 3.2 | 0.00 | 0.00 | 0.00 | 59 | 1015.1 |
| 20260507004749 | 22 | 263 | 4.8 | 8.0 | 0.00 | 0.00 | 0.00 | 57 | 1014.9 |
| 20260507004246 | 21 | 263 | 4.8 | 8.0 | 0.00 | 0.00 | 0.00 | 57 | 1014.9 |
| 20260507003742 | 21 | 307 | 1.6 | 3.2 | 0.00 | 0.00 | 0.00 | 58 | 1015.0 |
| 20260507003238 | 21 | 266 | 9.7 | 12.9 | 0.00 | 0.00 | 0.00 | 57 | 1015.0 |
| 20260507002734 | 21 | 321 | 4.8 | 8.0 | 0.00 | 0.00 | 0.00 | 57 | 1015.1 |
| 20260507002230 | 22 | 268 | 4.8 | 4.8 | 0.00 | 0.00 | 0.00 | 57 | 1014.9 |
| 20260507001727 | 22 | 300 | 6.4 | 8.0 | 0.00 | 0.00 | 0.00 | 57 | 1015.1 |
| 20260507001225 | 21 | 280 | 8.0 | 11.3 | 0.00 | 0.00 | 0.00 | 59 | 1014.8 |
| 20260507000721 | 21 | 86 | 1.6 | 1.6 | 0.00 | 0.00 | 0.00 | 59 | 1014.8 |
| 20260507000216 | 21 | 304 | 11.3 | 14.5 | 0.00 | 0.00 | 0.00 | 60 | 1014.9 |
| 20260506235713 | 21 | 290 | 9.7 | 12.9 | 0.00 | 0.00 | 0.00 | 62 | 1014.9 |
| 20260506235209 | 22 | 299 | 4.8 | 4.8 | 0.00 | 0.00 | 0.00 | 63 | 1014.6 |
| 20260506234706 | 21 | 317 | 3.2 | 3.2 | 0.00 | 0.00 | 0.00 | 63 | 1014.7 |
| 20260506234203 | 21 | 273 | 3.2 | 4.8 | 0.00 | 0.00 | 0.00 | 63 | 1014.7 |
| 20260506233701 | 22 | 315 | 1.6 | 3.2 | 0.00 | 0.00 | 0.00 | 62 | 1014.5 |
| 20260506233157 | 21 | 298 | 4.8 | 4.8 | 0.00 | 0.00 | 0.00 | 62 | 1015.0 |
| 20260506232654 | 22 | 275 | 3.2 | 3.2 | 0.00 | 0.00 | 0.00 | 60 | 1014.7 |
| 20260506232148 | 22 | 307 | 4.8 | 4.8 | 0.00 | 0.00 | 0.00 | 62 | 1014.6 |
| 20260506231646 | 21 | 294 | 8.0 | 12.9 | 0.00 | 0.00 | 0.00 | 62 | 1014.9 |
| 20260506231145 | 21 | 270 | 9.7 | 12.9 | 0.00 | 0.00 | 0.00 | 63 | 1014.9 |
| 20260506230641 | 21 | 249 | 12.9 | 16.1 | 0.00 | 0.00 | 0.00 | 63 | 1015.0 |
| 20260506230138 | 21 | 264 | 4.8 | 8.0 | 0.00 | 0.00 | 0.00 | 63 | 1015.0 |
| 20260506225634 | 21 | 306 | 8.0 | 12.9 | 0.00 | 0.00 | 0.00 | 64 | 1015.0 |
| 20260506225131 | 21 | 275 | 9.7 | 12.9 | 0.00 | 0.00 | 0.00 | 65 | 1015.0 |
| 20260506224628 | 21 | 299 | 6.4 | 8.0 | 0.00 | 0.00 | 0.00 | 63 | 1015.0 |
| 20260506224124 | 21 | 278 | 11.3 | 12.9 | 0.00 | 0.00 | 0.00 | 64 | 1015.2 |
| 20260506223621 | 21 | 326 | 4.8 | 4.8 | 0.00 | 0.00 | 0.00 | 65 | 1015.1 |
| 20260506223117 | 21 | 241 | 6.4 | 9.7 | 0.00 | 0.00 | 0.00 | 64 | 1015.0 |
| 20260506222614 | 21 | 292 | 9.7 | 11.3 | 0.00 | 0.00 | 0.00 | 64 | 1015.2 |
| 20260506222110 | 21 | 293 | 14.5 | 17.7 | 0.00 | 0.00 | 0.00 | 66 | 1014.9 |
| 20260506221608 | 22 | 301 | 6.4 | 9.7 | 0.00 | 0.00 | 0.00 | 65 | 1015.2 |
| 20260506221106 | 21 | 256 | 1.6 | 3.2 | 0.00 | 0.00 | 0.00 | 66 | 1015.3 |
| 20260506220601 | 21 | 305 | 8.0 | 9.7 | 0.00 | 0.00 | 0.00 | 66 | 1015.5 |
| 20260506220057 | 21 | 294 | 3.2 | 4.8 | 0.00 | 0.00 | 0.00 | 67 | 1015.5 |
| 20260506215554 | 21 | 304 | 9.7 | 14.5 | 0.00 | 0.00 | 0.00 | 66 | 1015.5 |
| 20260506215049 | 21 | 279 | 14.5 | 16.1 | 0.00 | 0.00 | 0.00 | 66 | 1015.5 |
| 20260506214547 | 21 | 270 | 8.0 | 9.7 | 0.00 | 0.00 | 0.00 | 65 | 1015.4 |
| 20260506214044 | 21 | 290 | 9.7 | 12.9 | 0.00 | 0.00 | 0.00 | 66 | 1015.7 |
| 20260506213543 | 21 | 259 | 4.8 | 8.0 | 0.00 | 0.00 | 0.00 | 66 | 1015.7 |
| 20260506213040 | 21 | 317 | 4.8 | 8.0 | 0.00 | 0.00 | 0.00 | 66 | 1015.6 |
| 20260506212536 | 21 | 332 | 8.0 | 9.7 | 0.00 | 0.00 | 0.00 | 67 | 1016.0 |
| 20260506212030 | 21 | 309 | 4.8 | 8.0 | 0.00 | 0.00 | 0.00 | 65 | 1015.9 |
| 20260506211527 | 21 | 255 | 11.3 | 14.5 | 0.00 | 0.00 | 0.00 | 66 | 1015.7 |
| 20260506211024 | 21 | 245 | 8.0 | 12.9 | 0.00 | 0.00 | 0.00 | 65 | 1015.7 |
| 20260506210521 | 21 | 341 | 8.0 | 14.5 | 0.00 | 0.00 | 0.00 | 65 | 1015.9 |
| 20260506210017 | 21 | 217 | 4.8 | 8.0 | 0.00 | 0.00 | 0.00 | 65 | 1015.7 |
| 20260506205514 | 21 | 262 | 6.4 | 8.0 | 0.00 | 0.00 | 0.00 | 65 | 1015.7 |
| 20260506205009 | 21 | 330 | 9.7 | 12.9 | 0.00 | 0.00 | 0.00 | 66 | 1015.8 |
| 20260506204508 | 21 | 293 | 11.3 | 12.9 | 0.00 | 0.00 | 0.00 | 66 | 1016.1 |
| 20260506204004 | 21 | 257 | 11.3 | 14.5 | 0.00 | 0.00 | 0.00 | 67 | 1015.8 |
| 20260506203503 | 21 | 243 | 8.0 | 9.7 | 0.00 | 0.00 | 0.00 | 65 | 1016.0 |
| 20260506202959 | 21 | 280 | 4.8 | 4.8 | 0.00 | 0.00 | 0.00 | 65 | 1016.0 |
| 20260506202456 | 21 | 289 | 8.0 | 9.7 | 0.00 | 0.00 | 0.00 | 64 | 1016.1 |
| 20260506201952 | 21 | 288 | 6.4 | 9.7 | 0.00 | 0.00 | 0.00 | 65 | 1016.0 |
| 20260506201450 | 21 | 269 | 8.0 | 9.7 | 0.00 | 0.00 | 0.00 | 66 | 1016.2 |
| 20260506200946 | 21 | 290 | 3.2 | 3.2 | 0.00 | 0.00 | 0.00 | 66 | 1016.1 |
| 20260506200443 | 21 | 260 | 4.8 | 9.7 | 0.00 | 0.00 | 0.00 | 65 | 1016.4 |
| 20260506195939 | 21 | 296 | 8.0 | 11.3 | 0.00 | 0.00 | 0.00 | 67 | 1016.3 |
| 20260506195436 | 21 | 300 | 8.0 | 12.9 | 0.00 | 0.00 | 0.00 | 65 | 1016.3 |
| 20260506194933 | 21 | 335 | 4.8 | 9.7 | 0.00 | 0.00 | 0.00 | 66 | 1016.4 |
| 20260506194430 | 21 | 273 | 1.6 | 3.2 | 0.00 | 0.00 | 0.00 | 65 | 1016.4 |
| 20260506193927 | 21 | 275 | 8.0 | 9.7 | 0.00 | 0.00 | 0.00 | 65 | 1016.5 |
| 20260506193424 | 21 | 297 | 8.0 | 11.3 | 0.00 | 0.00 | 0.00 | 65 | 1016.5 |
| 20260506192920 | 21 | 277 | 4.8 | 8.0 | 0.00 | 0.00 | 0.00 | 65 | 1016.2 |
| 20260506192417 | 21 | 320 | 8.0 | 11.3 | 0.00 | 0.00 | 0.00 | 65 | 1016.6 |
| 20260506191914 | 21 | 280 | 8.0 | 11.3 | 0.00 | 0.00 | 0.00 | 65 | 1016.7 |
| 20260506191410 | 21 | 313 | 8.0 | 11.3 | 0.00 | 0.00 | 0.00 | 64 | 1016.6 |
| 20260506190908 | 21 | 255 | 9.7 | 12.9 | 0.00 | 0.00 | 0.00 | 63 | 1016.6 |
| 20260506190404 | 21 | 326 | 4.8 | 8.0 | 0.00 | 0.00 | 0.00 | 64 | 1016.6 |
| 20260506185901 | 22 | 255 | 9.7 | 12.9 | 0.00 | 0.00 | 0.00 | 62 | 1016.5 |
| 20260506185358 | 22 | 274 | 6.4 | 8.0 | 0.00 | 0.00 | 0.00 | 60 | 1016.6 |
| 20260506184855 | 22 | 280 | 4.8 | 4.8 | 0.00 | 0.00 | 0.00 | 62 | 1016.8 |
| 20260506184352 | 21 | 313 | 0.0 | 1.6 | 0.00 | 0.00 | 0.00 | 62 | 1017.0 |
| 20260506183849 | 21 | 323 | 1.6 | 3.2 | 0.00 | 0.00 | 0.00 | 61 | 1016.8 |
| 20260506183344 | 22 | 295 | 6.4 | 11.3 | 0.00 | 0.00 | 0.00 | 60 | 1017.0 |
| 20260506182842 | 22 | 325 | 0.0 | 1.6 | 0.00 | 0.00 | 0.00 | 59 | 1017.0 |
| 20260506182339 | 21 | 335 | 3.2 | 3.2 | 0.00 | 0.00 | 0.00 | 62 | 1016.7 |
| 20260506181837 | 22 | 245 | 6.4 | 8.0 | 0.00 | 0.00 | 0.00 | 60 | 1017.1 |
| 20260506181335 | 21 | 320 | 0.0 | 1.6 | 0.00 | 0.00 | 0.00 | 62 | 1017.1 |
| 20260506180831 | 21 | 280 | 1.6 | 1.6 | 0.00 | 0.00 | 0.00 | 63 | 1017.1 |
| 20260506180327 | 21 | 313 | 8.0 | 12.9 | 0.00 | 0.00 | 0.00 | 62 | 1017.2 |
| 20260506175824 | 23 | 319 | 1.6 | 1.6 | 0.00 | 0.00 | 0.00 | 55 | 1017.1 |
| 20260506175321 | 23 | 343 | 0.0 | 0.0 | 0.00 | 0.00 | 0.00 | 51 | 1017.3 |
| 20260506174818 | 22 | 334 | 0.0 | 1.6 | 0.00 | 0.00 | 0.00 | 52 | 1017.3 |
| 20260506174315 | 21 | 78 | 1.6 | 1.6 | 0.00 | 0.00 | 0.00 | 57 | 1017.4 |
| 20260506173813 | 21 | 339 | 0.0 | 1.6 | 0.00 | 0.00 | 0.00 | 58 | 1017.5 |
| 20260506173309 | 20 | 341 | 0.0 | 0.0 | 0.00 | 0.00 | 0.00 | 58 | 1017.4 |
| 20260506172806 | 20 | 332 | 0.0 | 0.0 | 0.00 | 0.00 | 0.00 | 59 | 1017.4 |
| 20260506172306 | 20 | 320 | 1.6 | 3.2 | 0.00 | 0.00 | 0.00 | 60 | 1017.4 |
| 20260506171800 | 20 | 292 | 0.0 | 1.6 | 0.00 | 0.00 | 0.00 | 61 | 1017.5 |
| 20260506171257 | 20 | 300 | 1.6 | 4.8 | 0.00 | 0.00 | 0.00 | 63 | 1017.7 |
| 20260506170755 | 20 | 320 | 0.0 | 0.0 | 0.00 | 0.00 | 0.00 | 64 | 1017.5 |
| 20260506170251 | 20 | 312 | 0.0 | 0.0 | 0.00 | 0.00 | 0.00 | 63 | 1017.4 |
| 20260506165750 | 20 | 318 | 0.0 | 0.0 | 0.00 | 0.00 | 0.00 | 64 | 1017.7 |
| 20260506165247 | 18 | 333 | 0.0 | 0.0 | 0.00 | 0.00 | 0.00 | 67 | 1017.6 |
| 20260506164744 | 19 | 315 | 0.0 | 0.0 | 0.00 | 0.00 | 0.00 | 68 | 1017.7 |
| 20260506164240 | 18 | 291 | 3.2 | 3.2 | 0.00 | 0.00 | 0.00 | 70 | 1017.7 |
| 20260506163737 | 18 | 345 | 0.0 | 0.0 | 0.00 | 0.00 | 0.00 | 69 | 1017.7 |
| 20260506163232 | 18 | 36 | 0.0 | 0.0 | 0.00 | 0.00 | 0.00 | 70 | 1017.5 |
| 20260506162728 | 18 | 298 | 3.2 | 3.2 | 0.00 | 0.00 | 0.00 | 71 | 1017.9 |
| 20260506162226 | 17 | 291 | 0.0 | 0.0 | 0.00 | 0.00 | 0.00 | 74 | 1017.8 |
| 20260506161723 | 17 | 256 | 4.8 | 8.0 | 0.00 | 0.00 | 0.00 | 74 | 1017.5 |
| 20260506161220 | 18 | 290 | 0.0 | 0.0 | 0.00 | 0.00 | 0.00 | 74 | 1017.4 |
| 20260506160718 | 18 | 305 | 0.0 | 0.0 | 0.00 | 0.00 | 0.00 | 72 | 1017.5 |
| 20260506160214 | 18 | 321 | 0.0 | 0.0 | 0.00 | 0.00 | 0.00 | 74 | 1017.5 |
| 20260506155713 | 17 | 339 | 0.0 | 0.0 | 0.00 | 0.00 | 0.00 | 77 | 1017.5 |
| 20260506155210 | 17 | 331 | 0.0 | 0.0 | 0.00 | 0.00 | 0.00 | 76 | 1017.6 |
| 20260506153317 | 15 | 278 | 0.0 | 0.0 | 0.00 | 0.00 | 0.00 | 82 | 1017.7 |
| 20260506152814 | 15 | 321 | 0.0 | 0.0 | 0.00 | 0.00 | 0.00 | 83 | 1017.6 |
| 20260506152311 | 14 | 309 | 0.0 | 0.0 | 0.00 | 0.00 | 0.00 | 83 | 1017.5 |
| 20260506151810 | 13 | 320 | 0.0 | 0.0 | 0.00 | 0.00 | 0.00 | 83 | 1017.6 |
| 20260506151307 | 13 | 320 | 0.0 | 0.0 | 0.00 | 0.00 | 0.00 | 83 | 1017.6 |
| 20260506150803 | 14 | 298 | 0.0 | 0.0 | 0.00 | 0.00 | 0.00 | 83 | 1017.5 |
| 20260506150304 | 13 | 325 | 0.0 | 0.0 | 0.00 | 0.00 | 0.00 | 83 | 1017.8 |
| 20260506145757 | 13 | 343 | 0.0 | 0.0 | 0.00 | 0.00 | 0.00 | 86 | 1017.6 |
| 20260506145254 | 13 | 338 | 0.0 | 0.0 | 0.00 | 0.00 | 0.00 | 86 | 1017.8 |
| 20260506144751 | 12 | 280 | 0.0 | 0.0 | 0.00 | 0.00 | 0.00 | 88 | 1017.6 |
| 20260506144248 | 12 | 299 | 0.0 | 0.0 | 0.00 | 0.00 | 0.00 | 88 | 1017.4 |
| 20260506143746 | 11 | 314 | 0.0 | 0.0 | 0.00 | 0.00 | 0.00 | 90 | 1017.6 |
| 20260506143243 | 12 | 9 | 0.0 | 0.0 | 0.00 | 0.00 | 0.00 | 91 | 1017.6 |
| 20260506142741 | 11 | 317 | 0.0 | 0.0 | 0.00 | 0.00 | 0.00 | 92 | 1017.4 |
| 20260506142239 | 11 | 353 | 0.0 | 0.0 | 0.00 | 0.00 | 0.00 | 92 | 1017.5 |
| 20260506141738 | 10 | 23 | 0.0 | 0.0 | 0.00 | 0.00 | 0.00 | 93 | 1017.3 |
| 20260506141235 | 10 | 327 | 0.0 | 0.0 | 0.00 | 0.00 | 0.00 | 94 | 1017.2 |
| 20260506140732 | 10 | 347 | 0.0 | 0.0 | 0.00 | 0.00 | 0.00 | 95 | 1017.4 |
| 20260506140229 | 10 | 334 | 0.0 | 0.0 | 0.00 | 0.00 | 0.00 | 95 | 1017.5 |
| 20260506135726 | 10 | 315 | 0.0 | 0.0 | 0.00 | 0.00 | 0.00 | 96 | 1017.5 |
| 20260506135222 | 9 | 44 | 0.0 | 0.0 | 0.00 | 0.00 | 0.00 | 96 | 1017.2 |
| 20260506134719 | 9 | 45 | 0.0 | 0.0 | 0.00 | 0.00 | 0.00 | 96 | 1017.2 |
| 20260506134215 | 9 | 45 | 0.0 | 0.0 | 0.00 | 0.00 | 0.00 | 96 | 1017.4 |
| 20260506133713 | 9 | 45 | 0.0 | 0.0 | 0.00 | 0.00 | 0.00 | 97 | 1017.4 |
| 20260506133209 | 8 | 307 | 0.0 | 0.0 | 0.00 | 0.00 | 0.00 | 97 | 1017.3 |
| 20260506132706 | 8 | 14 | 0.0 | 0.0 | 0.00 | 0.00 | 0.00 | 97 | 1017.2 |
| 20260506132203 | 8 | 17 | 0.0 | 0.0 | 0.00 | 0.00 | 0.00 | 97 | 1017.1 |
| 20260506131701 | 8 | 291 | 0.0 | 0.0 | 0.00 | 0.00 | 0.00 | 97 | 1017.0 |
| 20260506131156 | 8 | 278 | 0.0 | 0.0 | 0.00 | 0.00 | 0.00 | 97 | 1017.0 |
| 20260506130654 | 8 | 336 | 0.0 | 0.0 | 0.00 | 0.00 | 0.00 | 97 | 1016.9 |
| 20260506130151 | 8 | 313 | 0.0 | 0.0 | 0.00 | 0.00 | 0.00 | 97 | 1016.9 |
| 20260506125649 | 8 | 329 | 0.0 | 0.0 | 0.00 | 0.00 | 0.00 | 97 | 1017.1 |
| 20260506125147 | 8 | 314 | 0.0 | 0.0 | 0.00 | 0.00 | 0.00 | 96 | 1016.8 |
| 20260506124645 | 8 | 305 | 0.0 | 0.0 | 0.00 | 0.00 | 0.00 | 96 | 1016.8 |
| 20260506124142 | 8 | 283 | 0.0 | 0.0 | 0.00 | 0.00 | 0.00 | 96 | 1016.9 |
| 20260506123639 | 8 | 322 | 0.0 | 0.0 | 0.00 | 0.00 | 0.00 | 96 | 1016.8 |
| 20260506123138 | 8 | 318 | 0.0 | 0.0 | 0.00 | 0.00 | 0.00 | 96 | 1016.8 |
| 20260506122634 | 8 | 309 | 0.0 | 0.0 | 0.00 | 0.00 | 0.00 | 96 | 1016.5 |
| 20260506122132 | 8 | 284 | 0.0 | 0.0 | 0.00 | 0.00 | 0.00 | 96 | 1016.4 |
| 20260506121629 | 8 | 301 | 0.0 | 0.0 | 0.00 | 0.00 | 0.00 | 96 | 1016.7 |
| 20260506121126 | 8 | 315 | 0.0 | 0.0 | 0.00 | 0.00 | 0.00 | 96 | 1016.7 |
| 20260506120624 | 8 | 305 | 0.0 | 0.0 | 0.00 | 0.00 | 0.00 | 96 | 1016.7 |
| 20260506120121 | 8 | 292 | 0.0 | 0.0 | 0.00 | 0.00 | 0.00 | 96 | 1016.7 |
| 20260506115619 | 9 | 340 | 0.0 | 0.0 | 0.00 | 0.00 | 0.00 | 96 | 1016.6 |
| 20260506115117 | 9 | 290 | 0.0 | 0.0 | 0.00 | 0.00 | 0.00 | 96 | 1016.7 |
| 20260506114614 | 9 | 326 | 0.0 | 0.0 | 0.00 | 0.00 | 0.00 | 96 | 1016.7 |
| 20260506114112 | 9 | 301 | 0.0 | 0.0 | 0.00 | 0.00 | 0.00 | 96 | 1016.5 |
| 20260506113610 | 9 | 310 | 0.0 | 0.0 | 0.00 | 0.00 | 0.00 | 96 | 1016.5 |
| 20260506113107 | 9 | 274 | 0.0 | 0.0 | 0.00 | 0.00 | 0.00 | 96 | 1016.5 |
| 20260506112603 | 9 | 273 | 0.0 | 0.0 | 0.00 | 0.00 | 0.00 | 96 | 1016.5 |
| 20260506112101 | 9 | 311 | 0.0 | 0.0 | 0.00 | 0.00 | 0.00 | 96 | 1016.7 |
| 20260506111559 | 9 | 296 | 0.0 | 0.0 | 0.00 | 0.00 | 0.00 | 96 | 1016.5 |
| 20260506111056 | 9 | 326 | 0.0 | 0.0 | 0.00 | 0.00 | 0.00 | 96 | 1016.4 |
| 20260506110553 | 9 | 286 | 0.0 | 0.0 | 0.00 | 0.00 | 0.00 | 96 | 1016.5 |
| 20260506110050 | 9 | 314 | 0.0 | 0.0 | 0.00 | 0.00 | 0.00 | 96 | 1016.6 |